Location: Washington
(38.8950°N, 77.0370°W)
Time: 05:00:38
(UTC-04:00)

Tiangong 1 - Visible Passes

Search period start: 01 November 2014 00:00
Search period end: 10 November 2014 23:00
Orbit: 347 x 359 km, 42.8° (Epoch: 31 October)

Date Brightness Start Highest point End Pass type
(mag) Time Alt. Az. Time Alt. Az. Time Alt. Az.
01 Nov 0.9 19:25:03 10° WNW 19:28:01 68° NNE 19:28:33 52° ENE visible
02 Nov 2.0 18:51:14 10° WNW 18:53:40 44° WSW 18:53:40 44° WSW visible
03 Nov 0.8 17:41:10 10° WNW 17:44:08 80° NNE 17:47:06 10° ESE visible
03 Nov 4.0 19:17:47 10° W 19:18:47 15° WSW 19:18:47 15° WSW visible
04 Nov 2.1 18:07:08 10° W 18:09:56 39° SSW 18:12:22 13° SE visible
05 Nov 3.8 18:33:39 10° WSW 18:35:24 15° SW 18:37:07 10° S visible
07 Nov 4.1 17:49:11 10° WSW 17:50:22 12° SW 17:51:32 10° SSW visible
